Regional Weather Roundup
Issued by NWS

Home | Current Version | Previous Version | Graphics & Text | Print | Product List | Glossary On
Versions: 1 2 3 4 5 6 7 8 9 10 11 12 13 14 15 16 17 18 19 20 21 22 23 24 25 26 27 28 29 30 31 32 33 34 35 36 37 38 39 40 41 42 43 44 45 46 47 48 49 50
418
ASUS43 KLMK 060210
RWRKY
KENTUCKY REGIONAL WEATHER ROUNDUP
NATIONAL WEATHER SERVICE LOUISVILLE KY
900 PM EST MON DEC 05 2016

NOTE "FAIR" INDICATES FEW OR NO CLOUDS BELOW 12,000 FEET
WITH NO SIGNIFICANT WEATHER AND/OR OBSTRUCTIONS TO VISIBILITY.

KYZ001>023-026-027-061>063-070>075-060300-
WESTERN AND SOUTH CENTRAL KENTUCKY

CITY           SKY/WX    TMP DP  RH WIND       PRES   REMARKS
PADUCAH        CLOUDY    42  36  79 E12       29.82F
HENDERSON      CLOUDY    41  34  75 E12       29.86F
OWENSBORO      CLOUDY    42  36  79 E8        29.88F
HOPKINSVILLE   CLOUDY    43  40  88 E7        29.84F
BOWLING GREEN  CLOUDY    45  39  79 E10       29.87F
GLASGOW        CLOUDY    44  39  85 NE9       29.87F
$$

KYZ024-025-028>034-038-045-046-053-060300-
NORTH CENTRAL KENTUCKY

CITY           SKY/WX    TMP DP  RH WIND       PRES   REMARKS
LOUISVILLE/SDF CLOUDY    44  34  67 E8        29.92F
LOUISVILLE/LOU PTCLDY    43  35  73 NE7       29.94F
FORT KNOX      CLOUDY    42  35  77 NE10      29.89S
$$

KYZ035>037-039>044-047>052-055>060-089>105-060300-
NORTHEAST KENTUCKY

CITY           SKY/WX    TMP DP  RH WIND       PRES   REMARKS
LEXINGTON      CLOUDY    44  35  70 E12       29.95S
COVINGTON      MOCLDY    39  33  79 E13       29.95F WCI  31
FRANKFORT      CLOUDY    43  34  70 NE6       29.94F
$$

KYZ054-064>069-076>088-106>120-060300-
SOUTHEAST KENTUCKY

CITY           SKY/WX    TMP DP  RH WIND       PRES   REMARKS
JACKSON        CLOUDY    44  35  70 VRB5      29.92F
LONDON         CLOUDY    46  38  73 E6        29.91F
SOMERSET       CLOUDY    45  37  76 NE8       29.91F
MIDDLESBORO    CLOUDY    49  45  86 CALM      29.92F
MONTICELLO     CLOUDY    47  42  83 N17       29.92S
$$





USA.gov is the U.S. government's official web portal to all federal, state and local government web resources and services.